Location: Brissac
(47.3500°N, 0.4500°W)
Time: 15:33:53
(UTC+02:00)

ISS - Pass Details

Date: 19 May 2021
Orbit: 419 x 422 km, 51.6° (Epoch: 25 June)

Event Time Altitude Azimuth Distance (km) Brightness Sun altitude
Rises 01:56:30 0° 292° (WNW) 2,375 0.4 -22.9°
Reaches altitude 10° 01:58:39 10° 297° (WNW) 1,509 -0.6 -22.9°
Enters shadow 02:01:35 50° 347° (NNW) 549 -2.9 -22.9°
